Temp
80 81 82 81 82 82 82 83 83 82 82 82 82 83 83 84 84 84 84 81 82 85
78 77 81 80 81 83 81 83 81 81 81 82 82 82 82 84 83 83 84 84 82 83
77 78 80 80 79 80 81 81 80 80 80 81 81 82 81 83 83 81 84 86 83 83
75 76 76 77 78 77 79 80 80 79 80 80 81 82 80 81 82 81 81 82 82 82
74 73 74 75 78 79 79 81 80 80 80 80 81 82 81 81 84 81 81 82 81 82
78 76 75 77 78 80 79 79 82 81 80 80 81 81 81 80 81 82 82 82 81 82
80 81 80 79 79 79 78 77 79 80 80 81 82 82 82 82 81 81 83 82 82 82
78 79 79 79 79 80 80 80 78 78 80 80 82 84 82 82 81 80 81 82 82 83
76 76 77 77 77 78 80 80 79 80 79 77 79 74 69 74 83 82 80 80 82 82
74 74 75 75 75 76 77 78 78 78 79 79 79 69 67 69 80 81 81 80 80 83
73 73 73 73 74 74 75 75 76 77 78 78 79 67 66 67 76 77 78 78 79 79
71 71 71 71 72 73 73 73 75 76 76 76 77 67 64 67 75 73 74 73 74 76
70 70 70 70 70 71 72 72 75 75 75 72 75 67 63 66 78 73 75 73 72 66
69 69 69 69 70 70 71 71 71 72 73 73 73 74 62 60 74 77 76 77 76 75
MSLP
1015.21 1015.27 1015.28 1015.35 1015.30 1015.37 1015.56 1015.73 1015.90 1016.15 1016.27 1016.52 1016.82 1016.94 1017.09 1017.26 1017.32 1017.53 1017.57 1017.71 1017.65 1017.36
1014.84 1015.07 1014.94 1015.10 1015.17 1015.13 1015.32 1015.50 1015.86 1015.87 1016.07 1016.14 1016.22 1016.50 1016.82 1016.85 1016.95 1017.07 1017.14 1017.19 1017.33 1017.28
1014.62 1014.59 1014.67 1015.02 1015.01 1014.96 1014.98 1015.08 1015.36 1015.61 1015.74 1015.87 1016.09 1016.30 1016.56 1016.50 1016.62 1016.73 1016.61 1016.58 1016.80 1016.87
1013.83 1013.85 1013.99 1014.38 1014.85 1014.50 1014.67 1014.65 1014.66 1014.99 1015.13 1015.19 1015.36 1015.70 1015.98 1016.12 1016.23 1016.39 1016.29 1016.29 1016.34 1016.42
1013.82 1013.00 1013.51 1013.85 1014.30 1014.30 1014.10 1014.17 1014.17 1014.36 1014.55 1014.68 1014.70 1014.78 1015.00 1015.29 1015.34 1015.57 1015.69 1015.76 1015.92 1015.85
1013.94 1013.96 1013.71 1013.84 1014.22 1013.98 1013.78 1013.83 1013.65 1013.79 1013.96 1014.04 1014.09 1014.21 1014.33 1014.50 1014.66 1014.75 1014.86 1015.02 1015.27 1015.22
1013.97 1013.73 1013.69 1013.82 1013.83 1013.60 1013.47 1013.38 1013.18 1013.21 1013.25 1013.41 1013.42 1013.48 1013.71 1013.91 1014.06 1014.12 1014.12 1014.29 1014.43 1014.47
1014.13 1013.98 1013.67 1013.37 1013.24 1013.21 1013.12 1012.91 1012.89 1012.84 1012.82 1012.90 1012.84 1012.70 1012.83 1013.27 1013.40 1013.43 1013.40 1013.41 1013.58 1013.66
1013.96 1013.75 1013.47 1013.37 1013.30 1013.05 1012.76 1012.64 1012.61 1012.51 1012.45 1012.43 1012.34 1012.14 1012.42 1012.81 1012.54 1012.61 1012.70 1012.54 1012.58 1012.72
1014.10 1013.75 1013.38 1013.02 1012.86 1012.70 1012.56 1012.49 1012.30 1012.10 1011.97 1011.81 1011.82 1011.95 1012.25 1012.34 1012.36 1011.95 1011.78 1011.91 1011.81 1011.73
1014.02 1013.84 1013.59 1013.27 1012.88 1012.54 1012.11 1011.84 1011.69 1011.56 1011.49 1011.42 1011.33 1011.51 1011.66 1011.77 1011.83 1011.50 1011.31 1011.31 1011.31 1011.44
1014.01 1013.70 1013.37 1013.00 1012.72 1012.45 1012.06 1011.63 1011.29 1011.09 1011.03 1010.98 1010.85 1010.99 1011.08 1011.24 1011.08 1010.90 1010.72 1010.73 1010.85 1010.77
1014.17 1013.80 1013.40 1013.03 1012.59 1012.15 1011.85 1011.28 1010.95 1010.62 1010.55 1010.42 1010.29 1010.27 1010.34 1010.47 1010.19 1010.14 1009.90 1009.91 1010.05 1010.02
1013.96 1013.67 1013.19 1012.66 1012.23 1011.83 1011.37 1011.00 1010.59 1010.19 1009.85 1009.69 1009.45 1009.24 1009.36 1009.53 1009.57 1009.14 1009.07 1008.82 1008.76 1008.90
Wind_Speed
10 7 7 8 7 7 7 7 8 10 10 11 10 8 7 6 6 6 6 6 6 5
8 8 8 10 9 7 7 6 7 8 9 11 11 11 9 7 8 7 8 7 6 6
6 8 9 8 9 8 8 8 7 8 9 9 10 10 10 8 9 9 8 7 7 7
7 5 8 8 9 10 9 9 9 9 10 10 11 11 10 11 11 10 11 10 9 10
7 8 4 6 10 9 9 10 10 10 10 11 11 11 12 12 12 12 13 12 11 12
2 5 8 5 8 9 8 11 10 9 11 12 12 12 12 13 13 14 13 13 12 13
3 5 5 4 3 5 6 8 9 10 11 12 12 13 13 13 13 14 14 14 14 14
5 5 6 6 6 5 5 4 6 8 11 13 13 12 14 14 14 14 14 14 13 15
7 7 7 5 5 6 6 5 5 6 8 10 9 10 9 14 14 14 14 14 14 14
6 8 10 10 10 9 7 6 7 7 8 9 9 9 11 12 14 14 15 15 14 13
7 8 9 9 10 12 10 10 9 10 10 10 9 8 10 12 12 12 15 15 15 15
10 10 11 11 11 11 11 11 11 11 11 11 12 10 12 10 9 11 13 12 12 14
10 10 11 12 12 11 11 12 11 13 13 14 14 11 12 11 9 11 10 10 14 19
10 11 11 11 11 11 12 12 13 14 13 14 14 14 13 13 10 10 11 11 11 11
Wind_Direction
230 240 248 247 248 236 237 235 220 211 221 217 220 224 222 229 241 234 241 232 232 249
223 230 243 246 243 235 235 246 240 233 229 227 217 218 222 233 233 235 240 242 231 245
235 244 252 260 248 245 242 228 238 238 229 228 229 229 229 232 234 239 240 241 236 240
232 237 237 246 252 233 238 235 230 230 230 225 219 224 228 237 250 243 246 247 243 242
211 240 253 219 247 249 244 241 230 229 230 234 230 224 224 233 241 238 243 245 247 250
173 256 294 275 259 263 261 257 249 241 243 239 237 235 233 235 238 239 242 246 241 247
354 325 315 306 287 274 269 265 263 255 251 250 248 246 245 239 241 248 249 250 250 247
319 307 306 313 323 320 300 289 277 275 267 258 252 247 241 243 242 241 245 248 246 245
312 307 303 295 297 301 303 294 278 270 268 271 262 270 254 252 248 245 245 246 242 245
314 311 312 314 310 298 289 288 277 275 275 274 269 243 249 242 253 256 252 249 251 245
318 305 299 296 295 297 303 303 296 284 275 270 271 248 240 242 257 260 255 253 251 253
317 309 305 299 296 292 292 289 285 280 273 267 269 243 240 236 251 251 249 242 240 236
306 301 298 294 293 294 288 284 283 277 271 267 268 256 234 230 255 256 254 243 224 226
311 305 296 295 295 296 292 287 279 276 272 266 263 264 228 226 247 251 254 251 245 233